FW9939 Weather Reports


time (UTC)temp
F
wind
direction
speed
knots
gust
knots
rain 1hr
in
rain 24hr
in
rain mn
in
humidity
%
barometer
mb
20260504081548 49 126 2.6 7.0 0.00 0.00 0.00 55 1014.8
20260504044546 57 122 4.3 11.3 0.00 0.00 0.00 39 1009.8
20260504043048 57 114 2.6 7.8 0.00 0.00 0.00 39 1009.2
20260504041549 58 119 1.7 7.0 0.00 0.00 0.00 38 1008.7
20260504040048 59 121 0.9 7.0 0.00 0.00 0.00 37 1008.4
20260504034541 60 126 1.7 8.7 0.00 0.00 0.00 36 1008.0
20260504033047 61 131 2.6 7.8 0.00 0.00 0.00 35 1007.9
20260504031545 61 101 1.7 7.8 0.00 0.00 0.00 35 1007.6
20260504030050 63 91 1.7 9.6 0.00 0.00 0.00 32 1007.3
20260504024545 65 105 0.0 2.6 0.00 0.00 0.00 29 1007.1
20260504023043 67 114 0.9 8.7 0.00 0.00 0.00 26 1007.0
20260504021547 69 0 0.9 3.5 0.00 0.00 0.00 22 1006.9
20260504020045 70 116 1.7 8.7 0.00 0.00 0.00 21 1007.0
20260504014559 71 101 3.5 8.7 0.00 0.00 0.00 20 1007.0
20260504013050 72 86 3.5 8.7 0.00 0.00 0.00 20 1007.0
20260504011543 73 105 3.5 9.6 0.00 0.00 0.00 21 1006.9
20260504010053 73 98 2.6 11.3 0.00 0.00 0.00 20 1007.1
20260504004548 74 97 3.5 10.4 0.00 0.00 0.00 20 1007.1
20260504003051 74 130 4.3 9.6 0.00 0.00 0.00 21 1007.3
20260504001545 75 100 4.3 11.3 0.00 0.00 0.00 19 1007.3
20260504000054 74 119 3.5 10.4 0.00 0.00 0.00 20 1007.3
20260503234550 74 59 3.5 9.6 0.00 0.00 0.00 20 1007.5
20260503233046 74 99 3.5 11.3 0.00 0.00 0.00 20 1007.6
20260503231551 75 115 2.6 9.6 0.00 0.00 0.00 19 1007.6
20260503230045 74 50 5.2 13.0 0.00 0.00 0.00 19 1007.6
20260503224542 75 98 4.3 10.4 0.00 0.00 0.00 20 1007.7
20260503223042 75 100 6.1 12.2 0.00 0.00 0.00 20 1007.9
20260503221546 75 61 3.5 11.3 0.00 0.00 0.00 20 1008.2
20260503220054 75 26 4.3 10.4 0.00 0.00 0.00 19 1008.4
20260503214543 74 52 5.2 11.3 0.00 0.00 0.00 20 1008.5
20260503213047 74 40 3.5 10.4 0.00 0.00 0.00 21 1008.6
20260503211553 75 78 4.3 10.4 0.00 0.00 0.00 20 1009.0
20260503210105 73 29 5.2 12.2 0.00 0.00 0.00 21 1009.1
20260503204545 74 55 4.3 9.6 0.00 0.00 0.00 20 1009.3
20260503203051 74 88 3.5 9.6 0.00 0.00 0.00 21 1009.4
20260503201543 74 57 4.3 10.4 0.00 0.00 0.00 21 1009.6
20260503200047 75 24 3.5 8.7 0.00 0.00 0.00 20 1009.8
20260503194546 74 28 2.6 6.1 0.00 0.00 0.00 20 1010.1
20260503193049 73 58 4.3 13.0 0.00 0.00 0.00 19 1010.3
20260503191548 72 61 3.5 11.3 0.00 0.00 0.00 19 1010.4
20260503190051 72 67 5.2 9.6 0.00 0.00 0.00 20 1010.7
20260503184604 72 91 3.5 10.4 0.00 0.00 0.00 22 1010.7
20260503183057 71 107 3.5 7.8 0.00 0.00 0.00 23 1010.9
20260503181554 72 117 0.9 5.2 0.00 0.00 0.00 24 1011.0
20260503180046 71 41 4.3 12.2 0.00 0.00 0.00 24 1011.4
20260503174544 71 87 4.3 11.3 0.00 0.00 0.00 25 1011.5
20260503173056 69 88 1.7 9.6 0.00 0.00 0.00 29 1011.4
20260503171546 70 30 1.7 9.6 0.00 0.00 0.00 27 1011.5